SR8WXB-1 Weather Reports


time (UTC)temp
C
wind
direction
speed
KPH
gust
KPH
rain 1hr
cm
rain 24hr
cm
rain mn
cm
humidity
%
barometer
mb
20260508054029 8 313 4.8 9.7 0.00 0.00 0.00 100 942.9
20260508053629 8 315 6.4 9.7 0.00 0.00 0.00 100 942.8
20260508053226 8 310 8.0 12.9 0.00 0.00 0.00 100 942.8
20260508052826 8 309 4.8 9.7 0.00 0.00 0.00 100 942.7
20260508052426 8 307 6.4 11.3 0.00 0.00 0.00 100 942.7
20260508052026 8 312 8.0 12.9 0.00 0.00 0.00 100 942.7
20260508051626 8 313 4.8 8.0 0.00 0.00 0.00 100 942.7
20260508051223 8 318 4.8 8.0 0.00 0.00 0.00 100 942.6
20260508050823 8 314 6.4 9.7 0.00 0.00 0.00 100 942.6
20260508050423 8 313 6.4 8.0 0.00 0.00 0.00 100 942.6
20260508050020 8 324 3.2 6.4 0.00 0.00 0.00 100 942.6
20260508045620 8 315 3.2 4.8 0.00 0.00 0.00 100 942.6
20260508045217 8 308 3.2 4.8 0.00 0.00 0.00 100 942.6
20260508044817 8 316 3.2 4.8 0.00 0.00 0.00 100 942.6
20260508044417 8 317 4.8 6.4 0.00 0.00 0.00 100 942.5
20260508044017 8 314 4.8 8.0 0.00 0.00 0.00 100 942.6
20260508043617 8 308 4.8 8.0 0.00 0.00 0.00 100 942.5
20260508043214 8 317 6.4 8.0 0.00 0.00 0.00 100 942.5
20260508042814 8 315 8.0 12.9 0.00 0.00 0.00 100 942.5
20260508042414 9 314 8.0 11.3 0.00 0.00 0.00 100 942.4
20260508042015 9 311 8.0 12.9 0.00 0.00 0.00 100 942.4
20260508041615 9 309 6.4 9.7 0.00 0.00 0.00 100 942.3
20260508041212 9 311 6.4 9.7 0.00 0.00 0.00 100 942.3
20260508040812 10 303 9.7 16.1 0.00 0.00 0.00 100 942.2
20260508040412 10 311 3.2 4.8 0.00 0.00 0.00 100 942.2
20260508040012 10 288 3.2 4.8 0.00 0.00 0.00 100 942.1
20260508035612 10 285 6.4 8.0 0.00 0.00 0.00 100 942.1
20260508035158 10 276 9.7 12.9 0.00 0.00 0.00 100 942.1
20260508034758 10 271 6.4 9.7 0.00 0.00 0.00 100 942.1
20260508033958 10 271 8.0 11.3 0.00 0.00 0.00 100 942.0
20260508033558 10 272 8.0 9.7 0.00 0.00 0.00 100 942.0
20260508033155 10 279 8.0 12.9 0.00 0.00 0.00 100 941.9
20260508032755 10 275 6.4 9.7 0.00 0.00 0.00 100 941.9
20260508032355 10 277 6.4 9.7 0.00 0.00 0.00 100 941.8
20260508031955 10 282 3.2 6.4 0.00 0.00 0.00 100 941.7
20260508031555 10 282 6.4 9.7 0.00 0.00 0.00 100 941.7
20260508031152 10 280 3.2 8.0 0.00 0.00 0.00 100 941.7
20260508030752 10 275 8.0 11.3 0.00 0.00 0.00 100 941.8
20260508030352 10 275 9.7 12.9 0.00 0.00 0.00 100 941.7
20260508025952 10 284 6.4 11.3 0.00 0.00 0.00 100 941.6
20260508025549 10 283 6.4 9.7 0.00 0.00 0.00 100 941.5
20260508025146 10 283 3.2 6.4 0.00 0.00 0.00 100 941.4
20260508024746 10 290 3.2 6.4 0.00 0.00 0.00 100 941.3
20260508024346 10 292 3.2 4.8 0.00 0.00 0.00 100 941.5
20260508023946 10 279 6.4 11.3 0.00 0.00 0.00 100 941.6
20260508023546 10 279 6.4 8.0 0.00 0.00 0.00 100 941.6
20260508023143 10 276 6.4 9.7 0.00 0.00 0.00 100 941.6
20260508022743 10 266 6.4 9.7 0.00 0.00 0.00 100 941.6
20260508022343 10 264 4.8 8.0 0.00 0.00 0.00 100 941.5
20260508021943 10 261 4.8 4.8 0.00 0.00 0.00 100 941.4
20260508021543 10 276 3.2 4.8 0.00 0.00 0.00 100 941.3
20260508021140 10 283 3.2 3.2 0.00 0.00 0.00 100 941.4
20260508020740 10 283 3.2 4.8 0.00 0.00 0.00 100 941.4
20260508020340 10 247 1.6 3.2 0.00 0.00 0.00 100 941.3
20260508015940 10 209 4.8 6.4 0.00 0.00 0.00 100 941.2
20260508015540 10 277 0.0 1.6 0.00 0.00 0.00 100 941.5
20260508015137 10 277 1.6 3.2 0.00 0.00 0.00 100 941.7
20260508014738 10 282 1.6 3.2 0.00 0.00 0.00 100 941.7
20260508014338 10 288 3.2 3.2 0.00 0.00 0.00 100 941.8
20260508013938 10 278 3.2 6.4 0.00 0.00 0.00 100 941.8
20260508013537 10 279 4.8 8.0 0.00 0.00 0.00 100 941.9
20260508013134 10 282 4.8 9.7 0.00 0.00 0.00 100 941.9
20260508012734 10 279 6.4 11.3 0.00 0.00 0.00 100 942.0
20260508012334 10 280 9.7 11.3 0.00 0.00 0.00 100 942.0
20260508011934 10 283 8.0 12.9 0.00 0.00 0.00 100 942.0
20260508011526 10 277 8.0 12.9 0.00 0.00 0.00 100 941.9
20260508011123 10 281 9.7 12.9 0.00 0.00 0.00 100 941.9
20260508010723 10 279 12.9 16.1 0.00 0.00 0.00 100 941.9
20260508005923 10 278 6.4 14.5 0.00 0.00 0.00 100 941.9
20260508005523 10 282 8.0 14.5 0.00 0.00 0.00 100 941.9
20260508005116 10 288 9.7 14.5 0.00 0.00 0.00 100 941.9
20260508004716 10 292 6.4 11.3 0.00 0.00 0.00 100 941.9
20260508004316 10 284 6.4 9.7 0.00 0.00 0.00 100 941.9
20260508003916 10 283 8.0 9.7 0.00 0.00 0.00 100 941.9
20260508003516 10 279 8.0 12.9 0.00 0.00 0.00 100 941.9
20260508003113 10 281 8.0 9.7 0.00 0.00 0.00 100 942.0
20260508002713 10 281 6.4 9.7 0.00 0.00 0.00 100 942.0
20260508002314 10 285 11.3 14.5 0.00 0.00 0.00 100 942.1
20260508001914 10 288 8.0 11.3 0.00 0.00 0.00 100 942.1
20260508001514 10 282 8.0 12.9 0.00 0.00 0.00 100 942.1
20260508001111 10 279 8.0 12.9 0.00 0.00 0.00 100 942.1
20260508000711 10 284 9.7 12.9 0.00 0.00 0.00 100 942.1
20260508000312 10 283 11.3 16.1 0.00 0.00 0.00 100 942.1
20260507235911 10 268 9.7 19.3 0.00 0.00 0.00 100 942.2
20260507235511 10 279 11.3 16.1 0.00 0.00 0.00 100 942.1
20260507235108 10 279 8.0 12.9 0.00 0.00 0.00 100 942.2
20260507234708 10 284 8.0 11.3 0.00 0.00 0.00 100 942.1
20260507234308 10 277 8.0 9.7 0.00 0.00 0.00 100 942.1
20260507233908 10 278 6.4 9.7 0.00 0.00 0.00 100 942.1
20260507233508 10 265 8.0 11.3 0.00 0.00 0.00 100 942.1
20260507233105 10 273 6.4 9.7 0.00 0.00 0.00 100 942.0
20260507232705 10 253 8.0 11.3 0.00 0.00 0.00 100 942.1
20260507232307 10 243 11.3 16.1 0.00 0.00 0.00 100 942.1
20260507231905 10 239 11.3 12.9 0.00 0.00 0.00 100 942.1
20260507231505 10 241 9.7 12.9 0.00 0.00 0.00 100 942.1
20260507231102 10 244 9.7 11.3 0.00 0.00 0.00 100 942.1
20260507230703 10 249 8.0 9.7 0.00 0.00 0.00 100 942.1
20260507230303 10 253 9.7 12.9 0.00 0.00 0.00 100 942.1
20260507225903 10 257 8.0 9.7 0.00 0.00 0.00 100 942.1
20260507225502 10 257 8.0 9.7 0.00 0.00 0.00 100 942.1
20260507225059 10 262 8.0 11.3 0.00 0.00 0.00 100 942.1
20260507224656 10 247 9.7 11.3 0.00 0.00 0.00 100 942.1
20260507224256 10 260 8.0 9.7 0.00 0.00 0.00 100 942.1
20260507223845 10 250 8.0 9.7 0.00 0.00 0.00 100 942.1
20260507223445 10 244 9.7 11.3 0.00 0.00 0.00 100 942.1
20260507223042 10 251 9.7 11.3 0.00 0.00 0.00 100 942.2
20260507222642 10 250 8.0 11.3 0.00 0.00 0.00 100 942.2
20260507222242 10 248 9.7 11.3 0.00 0.00 0.00 100 942.2
20260507221842 10 266 8.0 9.7 0.00 0.00 0.00 100 942.2
20260507221442 10 253 8.0 9.7 0.00 0.00 0.00 100 942.2
20260507221039 10 248 9.7 12.9 0.00 0.00 0.00 100 942.3
20260507220639 10 239 9.7 11.3 0.00 0.00 0.00 100 942.2
20260507220239 10 240 9.7 11.3 0.00 0.00 0.00 100 942.2
20260507215839 11 241 9.7 12.9 0.00 0.00 0.00 100 942.2
20260507215439 11 244 8.0 9.7 0.00 0.00 0.00 100 942.1
20260507215036 11 253 6.4 6.4 0.00 0.00 0.00 100 942.1
20260507214636 11 296 1.6 4.8 0.00 0.00 0.00 100 942.0
20260507214236 11 305 1.6 3.2 0.00 0.00 0.00 100 941.9
20260507213836 11 306 3.2 4.8 0.00 0.00 0.00 100 941.9
20260507213436 11 313 3.2 4.8 0.00 0.00 0.00 100 941.8
20260507213034 11 323 1.6 3.2 0.00 0.00 0.00 100 941.8
20260507212634 11 349 3.2 6.4 0.00 0.00 0.00 100 941.7
20260507212234 11 329 3.2 4.8 0.00 0.00 0.00 100 941.8
20260507211434 11 311 3.2 4.8 0.00 0.00 0.00 100 941.8
20260507211031 11 303 6.4 11.3 0.00 0.00 0.00 100 941.9
20260507210630 11 294 4.8 8.0 0.00 0.00 0.00 100 941.9
20260507210230 10 280 8.0 12.9 0.00 0.00 0.00 100 942.0
20260507205830 10 276 12.9 16.1 0.00 0.00 0.00 100 942.0
20260507205430 10 277 11.3 14.5 0.00 0.00 0.00 100 942.0
20260507205027 10 277 11.3 14.5 0.00 0.00 0.00 100 942.0
20260507204628 11 273 11.3 14.5 0.00 0.00 0.00 100 942.0
20260507204224 11 259 12.9 19.3 0.00 0.00 0.00 100 942.0
20260507203824 11 263 12.9 20.9 0.00 0.00 0.00 100 942.0
20260507203424 11 247 12.9 16.1 0.00 0.00 0.00 100 941.9
20260507203021 11 261 11.3 16.1 0.00 0.00 0.00 100 942.0
20260507202622 11 258 11.3 14.5 0.00 0.00 0.00 100 942.0
20260507202222 11 268 11.3 16.1 0.00 0.00 0.00 100 942.0
20260507201822 11 260 9.7 12.9 0.00 0.00 0.00 100 942.0
20260507201422 11 273 6.4 9.7 0.00 0.00 0.00 100 941.9
20260507201019 11 272 11.3 12.9 0.00 0.00 0.00 100 941.9
20260507200619 11 280 9.7 12.9 0.00 0.00 0.00 100 941.9
20260507200210 11 280 12.9 17.7 0.00 0.00 0.00 100 941.8
20260507195810 11 265 12.9 17.7 0.00 0.00 0.00 100 941.9
20260507195410 11 254 12.9 16.1 0.00 0.00 0.00 100 941.8
20260507195007 12 246 9.7 11.3 0.00 0.00 0.00 100 941.9
20260507194608 12 282 14.5 19.3 0.00 0.00 0.00 100 942.0
20260507194208 12 288 6.4 12.9 0.00 0.00 0.00 100 941.9
20260507193808 12 265 8.0 11.3 0.00 0.00 0.00 100 941.9
20260507193408 12 282 8.0 9.7 0.00 0.00 0.00 100 941.9
20260507193005 12 282 4.8 8.0 0.00 0.00 0.00 100 941.8
20260507192605 12 278 3.2 6.4 0.00 0.00 0.00 100 941.8
20260507192205 12 276 4.8 6.4 0.00 0.00 0.00 100 941.7
20260507191805 12 316 4.8 9.7 0.00 0.00 0.00 100 941.6
20260507191405 12 337 6.4 9.7 0.00 0.00 0.00 100 941.4
20260507191002 12 325 8.0 9.7 0.00 0.00 0.00 100 941.4
20260507190602 12 26 8.0 9.7 0.00 0.00 0.00 100 941.3
20260507190202 12 113 9.7 12.9 0.00 0.00 0.00 100 941.3
20260507185802 13 15 6.4 9.7 0.00 0.00 0.00 100 941.4
20260507185402 13 332 4.8 6.4 0.00 0.00 0.00 100 941.4
20260507184959 12 331 3.2 8.0 0.00 0.00 0.00 100 941.5
20260507184559 12 318 4.8 8.0 0.00 0.00 0.00 100 941.5
20260507184159 12 317 8.0 9.7 0.00 0.00 0.00 100 941.4
20260507183756 12 313 8.0 11.3 0.00 0.00 0.00 100 941.4
20260507183356 12 323 6.4 11.3 0.00 0.00 0.00 100 941.4
20260507182953 13 313 9.7 12.9 0.00 0.00 0.00 100 941.3
20260507182553 13 312 8.0 11.3 0.00 0.00 0.00 100 941.3
20260507182153 13 313 8.0 11.3 0.00 0.00 0.00 100 941.3
20260507181753 13 315 8.0 14.5 0.00 0.00 0.00 100 941.3
20260507181353 13 313 11.3 16.1 0.00 0.00 0.00 100 941.2
20260507180950 13 306 8.0 11.3 0.00 0.00 0.00 100 941.2
20260507180550 13 311 4.8 9.7 0.00 0.00 0.00 100 941.1
20260507180150 13 313 6.4 9.7 0.00 0.00 0.00 100 941.1
20260507175750 14 297 6.4 9.7 0.00 0.00 0.00 100 941.0
20260507175350 14 289 11.3 14.5 0.00 0.00 0.00 100 941.0
20260507174948 14 289 9.7 16.1 0.00 0.00 0.00 100 941.0
20260507174547 14 288 14.5 20.9 0.00 0.00 0.00 100 941.0
20260507174148 14 262 14.5 17.7 0.00 0.00 0.00 100 940.9
20260507173748 14 274 16.1 29.0 0.00 0.00 0.00 100 940.9
20260507173348 14 249 29.0 35.4 0.00 0.00 0.00 100 940.8
20260507172933 14 234 27.4 33.8 0.00 0.00 0.00 100 940.8
20260507172533 14 233 29.0 38.6 0.00 0.00 0.00 100 940.7
20260507171733 14 231 32.2 43.5 0.00 0.00 0.00 100 940.8
20260507171334 14 236 24.1 29.0 0.00 0.00 0.00 100 940.6
20260507170931 14 232 25.7 30.6 0.00 0.00 0.00 100 940.6
20260507170531 14 229 25.7 32.2 0.00 0.00 0.00 100 940.6
20260507170131 14 227 22.5 29.0 0.00 0.00 0.00 100 940.6
20260507165731 15 227 22.5 27.4 0.00 0.00 0.00 100 940.6
20260507165331 15 227 20.9 27.4 0.00 0.00 0.00 100 940.5
20260507164928 15 228 22.5 29.0 0.00 0.00 0.00 100 940.5
20260507164527 15 228 24.1 30.6 0.00 0.00 0.00 100 940.4
20260507164128 15 227 19.3 32.2 0.00 0.00 0.00 100 940.4
20260507163728 15 225 22.5 32.2 0.00 0.00 0.00 100 940.3
20260507163324 15 228 24.1 32.2 0.00 0.00 0.00 100 940.3
20260507162921 15 227 22.5 32.2 0.00 0.00 0.00 100 940.4
20260507162521 15 228 25.7 33.8 0.00 0.00 0.00 100 940.4
20260507162122 16 229 22.5 32.2 0.00 0.00 0.00 100 940.3
20260507161722 16 228 22.5 33.8 0.00 0.00 0.00 100 940.4
20260507161322 15 229 17.7 22.5 0.00 0.00 0.00 100 940.4
20260507160919 15 231 14.5 22.5 0.00 0.00 0.00 100 940.5
20260507160519 15 233 16.1 22.5 0.00 0.00 0.00 100 940.4
20260507160119 16 227 24.1 30.6 0.00 0.00 0.00 100 940.4
20260507155719 16 232 17.7 29.0 0.00 0.00 0.00 100 940.4
20260507155319 16 234 17.7 25.7 0.00 0.00 0.00 100 940.4
20260507154916 16 230 16.1 24.1 0.00 0.00 0.00 100 940.5
20260507154516 15 229 29.0 35.4 0.00 0.00 0.00 100 940.4
20260507154116 15 230 25.7 33.8 0.00 0.00 0.00 100 940.5
20260507153716 15 227 29.0 37.0 0.00 0.00 0.00 100 940.6
20260507153316 15 231 25.7 38.6 0.00 0.00 0.00 100 940.6
20260507152913 15 230 20.9 29.0 0.00 0.00 0.00 100 940.7
20260507152513 15 225 19.3 30.6 0.00 0.00 0.00 100 940.8
20260507152113 15 228 20.9 27.4 0.00 0.00 0.00 100 940.8
20260507151713 15 228 24.1 32.2 0.00 0.00 0.00 100 940.8
20260507151313 15 228 14.5 22.5 0.00 0.00 0.00 100 940.9
20260507150910 15 227 19.3 24.1 0.00 0.00 0.00 100 940.9
20260507150510 15 227 17.7 24.1 0.00 0.00 0.00 100 940.9
20260507150110 15 227 19.3 25.7 0.00 0.00 0.00 100 940.8
20260507145710 15 228 17.7 24.1 0.00 0.00 0.00 100 940.8
20260507145301 15 233 16.1 20.9 0.00 0.00 0.00 100 940.8
20260507144859 15 236 16.1 24.1 0.00 0.00 0.00 100 940.8
20260507144459 16 236 19.3 27.4 0.00 0.00 0.00 100 940.8
20260507143659 16 235 16.1 20.9 0.00 0.00 0.00 100 940.9
20260507143259 16 236 19.3 29.0 0.00 0.00 0.00 100 940.8
20260507142852 16 234 20.9 32.2 0.00 0.00 0.00 100 940.8
20260507142452 16 232 24.1 32.2 0.00 0.00 0.00 100 940.8
20260507142052 16 233 20.9 30.6 0.00 0.00 0.00 100 940.8
20260507141652 16 237 30.6 35.4 0.00 0.00 0.00 100 940.7
20260507141252 16 241 33.8 41.8 0.00 0.00 0.00 100 940.7
20260507140849 16 237 33.8 48.3 0.00 0.00 0.00 100 940.7
20260507140449 16 237 37.0 56.3 0.00 0.00 0.00 100 940.7
20260507140049 16 233 30.6 45.1 0.00 0.00 0.00 100 940.7
20260507135649 16 237 32.2 40.2 0.00 0.00 0.00 100 940.7
20260507135249 17 239 33.8 45.1 0.00 0.00 0.00 100 940.7
20260507134846 17 237 24.1 35.4 0.00 0.00 0.00 100 940.6
20260507134447 17 241 32.2 37.0 0.00 0.00 0.00 100 940.5
20260507134047 17 237 32.2 43.5 0.00 0.00 0.00 100 940.5
20260507133647 17 233 29.0 38.6 0.00 0.00 0.00 100 940.5
20260507133247 17 233 22.5 30.6 0.00 0.00 0.00 100 940.4
20260507132844 17 232 27.4 37.0 0.00 0.00 0.00 100 940.4
20260507132444 17 237 25.7 37.0 0.00 0.00 0.00 100 940.3
20260507132044 17 233 27.4 38.6 0.00 0.00 0.00 100 940.4
20260507131644 17 235 33.8 40.2 0.00 0.00 0.00 100 940.3
20260507131244 17 237 29.0 41.8 0.00 0.00 0.00 100 940.4
20260507130841 17 239 25.7 32.2 0.00 0.00 0.00 100 940.4
20260507130441 17 241 29.0 38.6 0.00 0.00 0.00 100 940.4
20260507130041 17 240 27.4 35.4 0.00 0.00 0.00 100 940.3
20260507125641 17 238 29.0 37.0 0.00 0.00 0.00 100 940.4
20260507125241 16 240 29.0 32.2 0.00 0.00 0.00 100 940.3
20260507124838 16 243 32.2 41.8 0.00 0.00 0.00 100 940.3
20260507124438 16 243 38.6 48.3 0.00 0.00 0.00 100 940.3
20260507124038 16 245 37.0 48.3 0.00 0.00 0.00 100 940.3
20260507123638 16 249 46.7 56.3 0.00 0.00 0.00 100 940.5
20260507123238 16 246 48.3 67.6 0.00 0.00 0.00 100 940.5
20260507122835 17 245 46.7 64.4 0.00 0.00 0.00 100 940.4
20260507122432 17 248 48.3 62.8 0.00 0.00 0.00 100 940.5
20260507122032 17 248 46.7 64.4 0.00 0.00 0.00 100 940.4
20260507121620 17 245 43.5 67.6 0.00 0.00 0.00 100 940.4
20260507121221 17 243 43.5 62.8 0.00 0.00 0.00 100 940.4
20260507120818 17 241 41.8 62.8 0.00 0.00 0.00 100 940.5
20260507120418 17 241 41.8 57.9 0.00 0.00 0.00 100 940.5
20260507120018 17 243 32.2 41.8 0.00 0.00 0.00 100 940.5
20260507115618 17 242 40.2 56.3 0.00 0.00 0.00 100 940.5
20260507115218 17 245 41.8 56.3 0.00 0.00 0.00 100 940.4
20260507114815 17 244 48.3 70.8 0.00 0.00 0.00 100 940.4
20260507114415 18 240 30.6 37.0 0.00 0.00 0.00 100 940.5
20260507114015 18 242 40.2 61.2 0.00 0.00 0.00 100 940.5
20260507113615 18 240 32.2 45.1 0.00 0.00 0.00 100 940.6
20260507113215 18 238 32.2 45.1 0.00 0.00 0.00 100 940.6
20260507112812 18 239 29.0 41.8 0.00 0.00 0.00 100 940.5
20260507112412 18 241 35.4 43.5 0.00 0.00 0.00 100 940.5
20260507112012 17 238 33.8 45.1 0.00 0.00 0.00 100 940.6
20260507111612 17 237 30.6 46.7 0.00 0.00 0.00 100 940.5
20260507111212 17 239 29.0 40.2 0.00 0.00 0.00 100 940.5
20260507110809 17 241 30.6 43.5 0.00 0.00 0.00 100 940.6
20260507110409 18 241 29.0 38.6 0.00 0.00 0.00 100 940.6
20260507110009 18 241 33.8 48.3 0.00 0.00 0.00 100 940.6
20260507105210 18 241 32.2 54.7 0.00 0.00 0.00 100 940.5
20260507104807 18 241 35.4 45.1 0.00 0.00 0.00 100 940.5
20260507104406 18 241 35.4 51.5 0.00 0.00 0.00 100 940.5
20260507104006 18 246 45.1 61.2 0.00 0.00 0.00 100 940.5
20260507103606 18 244 49.9 64.4 0.00 0.00 0.00 100 940.5
20260507103206 18 244 43.5 61.2 0.00 0.00 0.00 100 940.5
20260507102803 18 244 53.1 70.8 0.00 0.00 0.00 100 940.4
20260507102404 18 243 45.1 70.8 0.00 0.00 0.00 100 940.4
20260507102000 18 245 51.5 70.8 0.00 0.00 0.00 100 940.4
20260507101601 18 243 46.7 69.2 0.00 0.00 0.00 100 940.4
20260507101200 18 245 37.0 56.3 0.00 0.00 0.00 100 940.5
20260507100757 18 250 43.5 56.3 0.00 0.00 0.00 100 940.4
20260507100357 18 245 45.1 56.3 0.00 0.00 0.00 100 940.4
20260507095957 18 247 43.5 59.5 0.00 0.00 0.00 100 940.5
20260507095557 17 245 38.6 54.7 0.00 0.00 0.00 100 940.6
20260507095157 17 245 53.1 69.2 0.00 0.00 0.00 100 940.5
20260507094755 17 242 41.8 57.9 0.00 0.00 0.00 100 940.5
20260507094355 17 249 48.3 62.8 0.00 0.00 0.00 100 940.5
20260507093946 18 242 38.6 57.9 0.00 0.00 0.00 100 940.4
20260507093546 18 242 41.8 57.9 0.00 0.00 0.00 100 940.4
20260507093146 18 242 41.8 62.8 0.00 0.00 0.00 100 940.4
20260507092743 18 242 48.3 61.2 0.00 0.00 0.00 100 940.4
20260507092343 18 243 38.6 53.1 0.00 0.00 0.00 100 940.4
20260507091943 17 243 38.6 59.5 0.00 0.00 0.00 100 940.4
20260507091543 17 244 53.1 64.4 0.00 0.00 0.00 100 940.3
20260507091143 17 244 48.3 64.4 0.00 0.00 0.00 100 940.3
20260507090741 17 243 51.5 66.0 0.00 0.00 0.00 100 940.3
20260507090341 17 242 38.6 54.7 0.00 0.00 0.00 100 940.2
20260507085941 17 243 46.7 64.4 0.00 0.00 0.00 100 940.3
20260507085541 17 241 40.2 62.8 0.00 0.00 0.00 100 940.3
20260507085141 17 242 38.6 48.3 0.00 0.00 0.00 100 940.2
20260507084738 17 242 41.8 56.3 0.00 0.00 0.00 100 940.3
20260507084338 17 243 35.4 45.1 0.00 0.00 0.00 100 940.3
20260507083938 17 239 35.4 53.1 0.00 0.00 0.00 100 940.2
20260507083537 17 242 33.8 51.5 0.00 0.00 0.00 100 940.1
20260507083137 17 241 29.0 38.6 0.00 0.00 0.00 100 940.2
20260507082735 17 238 29.0 40.2 0.00 0.00 0.00 100 940.1
20260507082335 17 243 37.0 43.5 0.00 0.00 0.00 100 940.1
20260507081935 17 244 37.0 53.1 0.00 0.00 0.00 100 940.1
20260507081532 17 242 30.6 43.5 0.00 0.00 0.00 100 940.0
20260507081132 17 244 40.2 53.1 0.00 0.00 0.00 100 940.0
20260507080729 17 237 33.8 46.7 0.00 0.00 0.00 100 940.0
20260507080329 17 234 20.9 32.2 0.00 0.00 0.00 100 940.0
20260507075929 17 230 27.4 40.2 0.00 0.00 0.00 100 940.1
20260507075529 17 226 32.2 41.8 0.00 0.00 0.00 100 940.0
20260507075129 17 235 22.5 32.2 0.00 0.00 0.00 100 940.0
20260507074726 16 236 25.7 32.2 0.00 0.00 0.00 100 939.9
20260507074326 16 232 25.7 38.6 0.00 0.00 0.00 100 940.0
20260507073926 16 234 22.5 27.4 0.00 0.00 0.00 100 940.0
20260507073526 16 234 17.7 29.0 0.00 0.00 0.00 100 940.0
20260507073126 16 232 19.3 29.0 0.00 0.00 0.00 100 940.0
20260507072723 16 236 25.7 30.6 0.00 0.00 0.00 100 940.0
20260507072323 15 234 30.6 40.2 0.00 0.00 0.00 100 940.0
20260507071923 15 234 33.8 41.8 0.00 0.00 0.00 100 939.9
20260507071523 15 238 25.7 38.6 0.00 0.00 0.00 100 939.9
20260507071123 15 240 25.7 32.2 0.00 0.00 0.00 100 939.8
20260507070709 15 236 24.1 29.0 0.00 0.00 0.00 100 939.8
20260507070309 15 240 30.6 35.4 0.00 0.00 0.00 100 939.7
20260507065509 15 242 35.4 41.8 0.00 0.00 0.00 100 939.5
20260507065109 15 243 32.2 41.8 0.00 0.00 0.00 100 939.4
20260507064706 15 242 37.0 48.3 0.00 0.00 0.00 100 939.4
20260507064306 15 243 32.2 43.5 0.00 0.00 0.00 100 939.3
20260507063907 16 241 37.0 43.5 0.00 0.00 0.00 100 939.4
20260507063507 16 252 32.2 43.5 0.00 0.00 0.00 100 939.4
20260507063107 16 245 35.4 43.5 0.00 0.00 0.00 100 939.4
20260507062704 16 244 32.2 40.2 0.00 0.00 0.00 100 939.4
20260507062306 16 254 30.6 40.2 0.00 0.00 0.00 100 939.4
20260507061903 16 232 29.0 33.8 0.00 0.00 0.00 100 939.4
20260507061503 16 235 25.7 30.6 0.00 0.00 0.00 100 939.4
20260507061100 16 233 22.5 33.8 0.00 0.00 0.00 100 939.4
20260507060657 16 232 19.3 29.0 0.00 0.00 0.00 100 939.3
20260507060257 16 233 22.5 29.0 0.00 0.00 0.00 100 939.1
20260507055857 16 238 20.9 29.0 0.00 0.00 0.00 100 939.1
20260507055457 16 233 24.1 35.4 0.00 0.00 0.00 100 939.0
20260507055057 16 233 22.5 35.4 0.00 0.00 0.00 100 938.9
20260507054654 15 233 20.9 29.0 0.00 0.00 0.00 100 938.9